Location: Marcé
(47.5801°N, 0.3280°W)
Time: 14:36:56
(UTC+01:00)

Explorer 7 - Pass Details

Date: 06 December 2021
Orbit: 483 x 674 km, 50.3° (Epoch: 19 January)

Event Time Altitude Azimuth Distance (km) Brightness Sun altitude
Rises 06:18:18 0° 234° (SW) 2,859 - -22.0°
Reaches altitude 10° 06:20:40 10° 231° (SW) 1,924 - -21.6°
Exits shadow 06:23:28 36° 214° (SSW) 925 7.7 -21.2°
Maximum altitude 06:24:59 58° 152° (SSE) 665 7.3 -20.9°
Drops below altitude 10° 06:29:03 10° 73° (ENE) 1,812 10.3 -20.2°
Sets 06:31:14 0° 70° (ENE) 2,675 11.3 -19.9°
